Du Bois, PA

8:54 AM EST on November 23, 2017 (GMT -0500)
Du Bois-Jefferson County

Weather History for KDUJ - March, 2015

Change the Weather History Date:

Monday, March 23, 2015

  Actual Average Record
Temperature  
Mean Temperature 26 °F 37 °F  
Max Temperature 37 °F 47 °F 78 °F (2012)
Min Temperature 15 °F 28 °F 11 °F (1983)
Degree Days  
Heating Degree Days 39 28  
Month to date heating degree days 777 727  
Since 1 July heating degree days 6115 5750  
Cooling Degree Days 0 0  
Month to date cooling degree days 0 0  
Year to date cooling degree days 0 0  
Moisture  
Dew Point 8 °F    
Average Humidity 50    
Maximum Humidity 73    
Minimum Humidity 26    
Precipitation  
Precipitation 0.00 in 0.11 in 0.51 in (2011)
Month to date precipitation 1.82 2.41  
Sea Level Pressure  
Sea Level Pressure 30.25 in    
Wind  
Wind Speed 5 mph (NNW)    
Max Wind Speed 14 mph    
Max Gust Speed 16 mph    
Visibility 10 miles    
Events      
T = Trace of Precipitation, MM = Missing Value Source: NWS Daily Summary

Daily Weather History Graph

Daily Weather History Graph

Search for Another Location

Airport or City:

Trip Planner

Search our weather history database for the weather conditions in past years. The results will help you decide how hot, cold, wet, or windy it might be!

Date:

Astronomy

Mar. 23, 2015 Rise Set
Actual Time 7:14 AM EDT 7:30 PM EDT
Civil Twilight 6:46 AM EDT 7:58 PM EDT
Nautical Twilight 6:14 AM EDT 8:30 PM EDT
Astronomical Twilight 5:41 AM EDT 9:03 PM EDT
Moon 9:21 AM EDT 11:36 PM EDT
Length of Visible Light 13h 11m
Length of Day
12h 16m
Waxing Crescent, 15% of the Moon is Illuminated
Mar 23
Waxing Crescent
Mar 27
First Quarter
Apr 4
Full
Apr 11
Last Quarter
Apr 18
New

Hourly Weather History & Observations

Time (EDT) Temp. Windchill Dew Point Humidity Pressure Visibility Wind Dir Wind Speed Gust Speed Precip Events Conditions
12:53 AM 19.0 °F 13.9 °F 8.1 °F 62% 30.23 in 10.0 mi WNW 3.5 mph - N/A   Clear
2:53 AM 18.0 °F 12.7 °F 9.0 °F 68% 30.25 in 10.0 mi West 3.5 mph - N/A   Clear
3:53 AM 17.1 °F 10.0 °F 9.0 °F 71% 30.25 in 10.0 mi West 4.6 mph - N/A   Clear
4:53 AM 16.0 °F 7.4 °F 9.0 °F 74% 30.25 in 10.0 mi West 5.8 mph - N/A   Clear
5:53 AM 16.0 °F 10.4 °F 9.0 °F 74% 30.25 in 9.0 mi West 3.5 mph - N/A   Clear
6:53 AM 16.0 °F 8.8 °F 9.0 °F 74% 30.27 in 10.0 mi WNW 4.6 mph - N/A   Clear
7:53 AM 16.0 °F - 9.0 °F 74% 30.28 in 10.0 mi Calm Calm - N/A   Clear
8:53 AM 19.0 °F 9.0 °F 10.0 °F 68% 30.29 in 10.0 mi North 8.1 mph - N/A   Clear
9:53 AM 21.9 °F 11.0 °F 9.0 °F 58% 30.29 in 10.0 mi NNE 10.4 mph - N/A   Clear
10:53 AM 25.0 °F 16.3 °F 9.0 °F 51% 30.30 in 10.0 mi North 8.1 mph - N/A   Clear
11:53 AM 28.9 °F 20.4 °F 9.0 °F 43% 30.29 in 10.0 mi North 9.2 mph - N/A   Clear
12:53 PM 30.0 °F 25.2 °F 8.1 °F 40% 30.27 in 10.0 mi Variable 4.6 mph - N/A   Clear
1:53 PM 33.1 °F - 8.1 °F 35% 30.25 in 10.0 mi Calm Calm - N/A   Clear
2:53 PM 35.1 °F 27.9 °F 9.0 °F 34% 30.23 in 10.0 mi NE 9.2 mph - N/A   Clear
3:53 PM 36.0 °F 30.3 °F 7.0 °F 30% 30.20 in 10.0 mi North 6.9 mph - N/A   Clear
4:53 PM 35.1 °F 32.2 °F 3.9 °F 27% 30.20 in 10.0 mi Variable 3.5 mph - N/A   Partly Cloudy
5:53 PM 35.1 °F 31.0 °F 3.9 °F 27% 30.21 in 10.0 mi North 4.6 mph - N/A   Overcast
6:53 PM 34.0 °F 29.8 °F 5.0 °F 30% 30.21 in 10.0 mi North 4.6 mph - N/A   Overcast
7:53 PM 33.1 °F 28.7 °F 7.0 °F 34% 30.22 in 10.0 mi NNE 4.6 mph - N/A   Overcast
8:53 PM 32.0 °F - 7.0 °F 35% 30.23 in 10.0 mi Calm Calm - N/A   Overcast
9:53 PM 32.0 °F 26.4 °F 3.9 °F 31% 30.23 in 10.0 mi North 5.8 mph - N/A   Overcast
10:53 PM 32.0 °F 27.5 °F 7.0 °F 35% 30.23 in 10.0 mi North 4.6 mph - N/A   Overcast
11:53 PM 30.9 °F 27.5 °F 9.0 °F 40% 30.23 in 10.0 mi NE 3.5 mph - N/A   Overcast